Location: Branche des Alpilles
(43.6087°N, 4.6976°E)
Time: 00:45:11
(UTC+00:00)

Envisat - Pass Details

Date: 04 October 2021
Orbit: 764 x 766 km, 98.2° (Epoch: 17 October)

Event Time Altitude Azimuth Distance (km) Brightness Sun altitude
Rises 03:23:46 0° 34° (NNE) 3,239 7.0 -25.5°
Reaches altitude 10° 03:27:33 10° 63° (ENE) 2,306 6.5 -24.9°
Maximum altitude 03:29:42 13° 88° (E) 2,124 6.2 -24.5°
Drops below altitude 10° 03:31:52 10° 113° (ESE) 2,298 6.1 -24.1°
Sets 03:35:36 0° 142° (SE) 3,217 6.5 -23.5°
